User: anonymous   Login
Location: Unspecified
(0.0000°N, 0.0000°E)
Time: 04:27:20
(UTC+00:00)
Language:

Vela 3B - Orbit

View from above orbital plane
View from above orbital plane
View from above satellite
View from above satellite

Ground track
Ground track

The orbit data is extracted from the following two-line orbital elements,

1 01459U 65058B   16042.41098989 -.00001063  00000-0  00000+0 0  9994
2 01459   6.1105  65.5136 4446831 286.3084 357.5479  0.21417965 39952
Epoch (UTC): 11 February 2016 09:51:49
Eccentricity: 0.4446831
inclination: 6.1105°
perigee height: 59149 km
apogee height: 164093 km
right ascension of ascending node: 65.5136°
argument of perigee: 286.3084°
revolutions per day: 0.21417965
mean anomaly at epoch: 357.5479°
orbit number at epoch: 3995

The dashed part of the orbit path shows where the satellite is in the earth's shadow,  

DLR